[[{"header":{"parameterUnit":"m.s-1","parameterCategory":1,"la1":30.2991,"la2":30.254,"lo1":-89.0895,"lo2":-89.0444,"dy":0.0017,"dx":0.0017,"nx":28,"ny":28,"refTime":"2023-07-19T21:00:00:Z","depth":0,"parameterNumber":2,"parameterNumberName":"U-component_of_WINDS"},"data":[0,0,0,0,0,0,0,0,0,0,0,0,0,0,0,0,0,0,0,0,0,0,0,0,0,0,0,0,0,0,0,0,0,0,0,0,0,0,0,0,0,0,0,0,0,0,0,0,0,0,0,0,0,0,0,0,0,0,1.5701,1.5702,0,1.5833,1.5834,1.5836,1.5883,1.5882,1.5882,1.5881,1.6021,1.6025,1.6029,0,0,0,0,0,0,0,0,0,0,0,0,0,1.5495,1.5498,1.5701,1.5702,1.5704,1.5832,1.5834,1.5836,1.5883,1.5882,1.5882,1.5881,1.602,1.6025,1.603,0,0,0,0,0,0,0,0,0,0,0,0,0,1.5601,1.5499,1.57,1.5743,1.5748,1.5832,1.5834,1.5837,1.5883,1.5882,1.5881,1.5881,1.6018,1.6024,1.603,1.6084,0,0,1.605,1.6052,0,0,0,0,0,0,0,0,1.5595,1.5609,1.5735,1.574,1.5746,1.584,1.5813,1.592,1.5883,1.5832,1.5881,1.588,1.5962,1.5973,1.5999,1.609,1.6096,1.605,1.6054,1.6057,1.6058,0,0,0,0,0,0,0,1.5588,1.5603,1.5753,1.5737,1.5743,1.5757,1.5771,1.5833,1.59,1.5836,1.584,1.5855,1.5965,1.5993,1.6003,1.6098,1.605,1.6056,1.6059,1.6062,1.6242,1.6243,0,0,0,0,0,0,1.5573,1.5597,1.5749,1.5757,1.5667,1.5761,1.5777,1.5811,1.5899,1.5912,1.5855,1.5856,1.5983,1.5996,1.6008,1.6077,1.6057,1.6063,1.6066,1.6241,1.6242,1.6243,0,0,0,0,0,0,1.5568,1.5586,1.5744,1.5678,1.5699,1.5765,1.5803,1.5814,1.5842,1.5913,1.5926,1.5871,1.5983,1.5999,1.6065,1.6082,1.6065,1.6071,1.6239,1.6241,1.6242,1.6214,0,0,0,0,0,0,1.5562,1.5584,1.5603,1.5678,1.5702,1.5796,1.5804,1.5817,1.5852,1.5855,1.5932,1.5944,1.5983,1.6055,1.6071,1.6091,1.6076,1.6238,1.624,1.6242,1.6214,1.6215,1.6215,0,0,0,0,0,1.5554,1.5591,1.5604,1.5622,1.5728,1.5797,1.5811,1.5854,1.5853,1.5874,1.592,1.5941,1.6078,1.6061,1.608,1.6101,1.6237,1.624,1.6242,1.6214,1.6214,1.6215,0,0,0,0,0,0,1.5518,1.5601,1.5617,1.5678,1.573,1.5805,1.5832,1.5854,1.5908,1.5908,1.5962,1.5979,1.604,1.6078,1.6058,1.6159,1.6159,1.6165,1.6131,1.6133,1.6133,1.6123,1.6081,0,0,0,0,0,1.5516,1.5564,1.5635,1.5683,1.5708,1.5765,1.5797,1.5826,1.5882,1.5905,1.5956,1.6011,1.6067,1.6102,1.6157,1.622,1.6238,1.6244,1.6245,1.6245,1.625,1.6287,1.6291,1.625,1.625,1.625,0,0,1.5515,1.5566,1.5593,1.5677,1.572,1.5769,1.5784,1.5835,1.5873,1.5913,1.5978,1.6017,1.6083,1.6147,1.6178,1.618,1.6265,1.6248,1.6248,1.6252,1.629,1.6293,1.6297,1.6252,1.6252,1.6251,0,0,1.5537,1.558,1.5625,1.5668,1.5733,1.5772,1.5783,1.5855,1.5882,1.5947,1.5978,1.6025,1.612,1.6165,1.62,1.6241,1.6263,1.6258,1.6262,1.6297,1.63,1.6303,1.6319,1.6323,1.6263,1.6263,1.6263,0,1.5527,1.5601,1.5646,1.5696,1.5732,1.577,1.5816,1.5857,1.5937,1.5962,1.5963,1.6083,1.613,1.6206,1.6215,1.6243,1.6258,1.6249,1.6296,1.63,1.6303,1.6318,1.6324,1.6261,1.6262,1.6262,1.6262,0,1.5586,1.5638,1.5666,1.5741,1.5781,1.5829,1.5882,1.5918,1.5944,1.5983,1.605,1.6107,1.6175,1.6195,1.6221,1.6275,1.6275,1.6285,1.6287,1.6305,1.632,1.6326,1.626,1.626,1.6261,1.6261,0,0,1.5588,1.5688,1.5697,1.5732,1.5808,1.5849,1.59,1.5965,1.5994,1.6049,1.6094,1.6173,1.6184,1.6224,1.6256,1.6287,1.6317,1.6294,1.6297,1.6297,1.6381,1.6372,1.6378,1.6332,1.6333,1.6334,1.6375,0,1.562,1.571,1.5752,1.5825,1.5874,1.5911,1.5956,1.6008,1.6046,1.6094,1.6137,1.6192,1.6202,1.6226,1.6259,1.6306,1.6334,1.6304,1.6375,1.6377,1.6357,1.6386,1.6377,1.6413,1.6382,1.6383,1.6383,0,1.5669,1.5723,1.5799,1.587,1.5892,1.5931,1.5994,1.6039,1.61,1.6126,1.6171,1.6202,1.6259,1.6257,1.6336,1.6314,1.6347,1.6374,1.6377,1.6385,1.6381,1.6395,1.6425,1.643,1.6393,1.6392,1.6392,0,1.5663,1.5754,1.5812,1.5841,1.5925,1.5952,1.5988,1.6048,1.6084,1.6141,1.6165,1.6228,1.6262,1.631,1.6358,1.6352,1.6434,1.6435,1.6458,1.6457,1.6473,1.6471,1.6509,1.6494,1.6494,1.6493,1.6493,0,1.5694,1.574,1.5811,1.5846,1.5899,1.5948,1.6,1.6039,1.6092,1.6138,1.6175,1.6217,1.6277,1.6328,1.6366,1.6426,1.6442,1.6465,1.6475,1.6462,1.6459,1.6483,1.6482,1.6495,1.6495,1.6494,1.6494,0,1.5696,1.5745,1.581,1.5884,1.5904,1.594,1.6004,1.6041,1.6081,1.6138,1.6155,1.6218,1.628,1.6332,1.6413,1.6439,1.6502,1.6513,1.648,1.6485,1.6505,1.6502,1.6559,1.657,1.6547,1.6547,1.6548,0,1.5712,1.5748,1.5826,1.5858,1.5893,1.5945,1.5983,1.6033,1.6071,1.6143,1.6172,1.6235,1.6289,1.6385,1.644,1.6503,1.6516,1.6532,1.6526,1.6512,1.6516,1.6513,1.6518,1.6532,1.6532,1.6532,1.6532,0,1.5736,1.5759,1.5811,1.5871,1.5915,1.5965,1.6017,1.6042,1.6102,1.6143,1.6205,1.6247,1.6329,1.6392,1.6461,1.6501,1.6527,1.6533,1.6542,1.6529,1.6508,1.652,1.6481,1.6532,1.6532,1.6532,1.6532,1.6532,1.5746,1.578,1.584,1.5897,1.5941,1.5989,1.6027,1.6072,1.6124,1.6194,1.6222,1.6285,1.6347,1.6442,1.6481,1.6533,1.6537,1.655,1.6553,1.6555,1.6553,1.65,1.6546,1.6546,1.6546,1.6546,1.6546,0,1.5772,1.5813,1.5865,1.5935,1.598,1.6,1.6059,1.6095,1.6151,1.6205,1.6257,1.6329,1.6391,1.645,1.6516,1.6546,1.6559,1.6561,1.6559,1.6568,1.6545,1.6531,1.6549,1.6549,1.6549,1.6549,1.6549,1.6549,1.5791,1.585,1.588,1.5961,1.6002,1.6064,1.6096,1.6141,1.6184,1.6263,1.6314,1.6352,1.6409,1.6479,1.6537,1.6553,1.6575,1.6574,1.6593,1.6571,1.657,1.6569,1.6556,1.6578,1.6578,1.6612,1.6612,1.6612]},{"header":{"parameterUnit":"m.s-1","parameterCategory":1,"la1":30.2991,"la2":30.254,"lo1":-89.0895,"lo2":-89.0444,"dy":0.0017,"dx":0.0017,"nx":28,"ny":28,"refTime":"2023-07-19T21:00:00:Z","depth":0,"parameterNumber":3,"parameterNumberName":"V-component_of_WINDS"},"data":[0,0,0,0,0,0,0,0,0,0,0,0,0,0,0,0,0,0,0,0,0,0,0,0,0,0,0,0,0,0,0,0,0,0,0,0,0,0,0,0,0,0,0,0,0,0,0,0,0,0,0,0,0,0,0,0,0,0,4.1071,4.1071,0,4.1094,4.1094,4.1094,4.1092,4.1092,4.1091,4.1091,4.1111,4.1112,4.1113,0,0,0,0,0,0,0,0,0,0,0,0,0,4.1021,4.1022,4.1071,4.1071,4.1072,4.1094,4.1094,4.1094,4.1092,4.1092,4.1091,4.1091,4.1111,4.1112,4.1113,0,0,0,0,0,0,0,0,0,0,0,0,0,4.1043,4.1022,4.1071,4.1073,4.1074,4.1094,4.1094,4.1094,4.1092,4.1092,4.1091,4.1091,4.111,4.1112,4.1113,4.1131,0,0,4.1117,4.1117,0,0,0,0,0,0,0,0,4.1042,4.1045,4.1073,4.1073,4.1074,4.109,4.1084,4.1107,4.1092,4.1085,4.1091,4.109,4.1104,4.1106,4.1111,4.1132,4.1133,4.1117,4.1118,4.1118,4.1119,0,0,0,0,0,0,0,4.104,4.1044,4.108,4.1073,4.1074,4.1071,4.1074,4.1088,4.1097,4.1086,4.1086,4.1088,4.1104,4.111,4.1112,4.1133,4.1117,4.1118,4.1119,4.1119,4.1167,4.1167,0,0,0,0,0,0,4.1039,4.1043,4.1079,4.1081,4.1056,4.1073,4.1076,4.1085,4.1097,4.1098,4.1089,4.1088,4.1108,4.111,4.1112,4.1132,4.1118,4.1119,4.112,4.1166,4.1167,4.1168,0,0,0,0,0,0,4.1038,4.1042,4.1078,4.1062,4.1066,4.1074,4.1085,4.1086,4.1091,4.1099,4.1101,4.1093,4.1108,4.111,4.1126,4.1133,4.112,4.1121,4.1166,4.1167,4.1167,4.1174,0,0,0,0,0,0,4.1036,4.1042,4.105,4.1062,4.1067,4.1093,4.1085,4.1086,4.1094,4.1093,4.1104,4.1105,4.1107,4.1124,4.1127,4.1135,4.1122,4.1165,4.1166,4.1167,4.1173,4.1175,4.1176,0,0,0,0,0,4.1034,4.1051,4.1051,4.1055,4.1078,4.1094,4.1097,4.11,4.1095,4.1102,4.1107,4.1105,4.1132,4.1126,4.1129,4.1137,4.1165,4.1166,4.1167,4.1172,4.1175,4.1176,0,0,0,0,0,0,4.104,4.1053,4.1052,4.1074,4.1083,4.1093,4.1103,4.1102,4.1112,4.1111,4.1114,4.1116,4.1131,4.1136,4.1129,4.1154,4.1147,4.1149,4.115,4.1152,4.1154,4.1152,4.1123,0,0,0,0,0,4.1044,4.1057,4.1067,4.1084,4.1089,4.1095,4.1102,4.1104,4.1113,4.1116,4.1122,4.113,4.114,4.1147,4.1156,4.1174,4.1175,4.1181,4.1182,4.1184,4.1185,4.1192,4.1194,4.1171,4.1171,4.1171,0,0,4.1051,4.106,4.1068,4.1086,4.1093,4.1104,4.1098,4.1112,4.112,4.1118,4.1133,4.1137,4.1146,4.1162,4.1169,4.1166,4.1191,4.1185,4.1186,4.1187,4.1193,4.1195,4.1197,4.1172,4.1172,4.1172,0,0,4.1071,4.108,4.1094,4.1101,4.1112,4.1115,4.1119,4.1129,4.1132,4.1147,4.1145,4.1154,4.1172,4.1177,4.1182,4.1201,4.1199,4.1204,4.1212,4.1219,4.1221,4.1222,4.1227,4.1229,4.1206,4.1206,4.1206,0,4.1079,4.1098,4.1101,4.1114,4.1121,4.112,4.1133,4.1139,4.1152,4.1156,4.1153,4.1173,4.1179,4.1195,4.1199,4.1204,4.1207,4.1203,4.122,4.1222,4.1223,4.1228,4.123,4.1206,4.1206,4.1206,4.1206,0,4.1105,4.1118,4.1128,4.1141,4.1148,4.1161,4.1165,4.1172,4.1172,4.1176,4.1189,4.1196,4.1206,4.121,4.1211,4.1225,4.1223,4.122,4.1213,4.1226,4.123,4.1232,4.1207,4.1207,4.1206,4.1206,0,0,4.113,4.1143,4.1146,4.1151,4.1162,4.1171,4.1182,4.1192,4.1197,4.1206,4.1214,4.1228,4.1225,4.1231,4.1231,4.1238,4.1249,4.1233,4.1234,4.1235,4.1263,4.1264,4.1266,4.1248,4.1248,4.1249,4.1262,0,4.1149,4.117,4.1173,4.1191,4.1201,4.12,4.1209,4.1216,4.1219,4.1227,4.1229,4.1239,4.1235,4.1238,4.1244,4.1246,4.1255,4.1246,4.1254,4.1254,4.1251,4.1269,4.1271,4.1283,4.1264,4.1264,4.1264,0,4.1174,4.1183,4.1203,4.1209,4.1214,4.1223,4.1231,4.1239,4.1245,4.1247,4.1252,4.1252,4.1261,4.1255,4.1267,4.1261,4.1264,4.1266,4.1266,4.1267,4.1259,4.1268,4.1287,4.1289,4.1267,4.1267,4.1267,0,4.1187,4.1204,4.1217,4.1221,4.123,4.1236,4.124,4.1246,4.1251,4.1258,4.1261,4.1269,4.1272,4.1278,4.1278,4.1274,4.129,4.1284,4.129,4.129,4.1293,4.1292,4.1311,4.1297,4.1297,4.1297,4.1297,0,4.1207,4.1219,4.1223,4.1231,4.1243,4.1245,4.1256,4.1259,4.1264,4.1271,4.127,4.1277,4.1278,4.1284,4.1285,4.1294,4.1296,4.1296,4.1296,4.1296,4.1295,4.1297,4.1296,4.1297,4.1297,4.1297,4.1297,0,4.1224,4.1227,4.1241,4.1248,4.125,4.1258,4.1263,4.127,4.1272,4.1281,4.1283,4.1286,4.1293,4.1295,4.1303,4.1304,4.1314,4.1313,4.1312,4.1311,4.1316,4.1315,4.1336,4.1339,4.1324,4.1324,4.1324,0,4.1236,4.1245,4.1252,4.1257,4.1261,4.1269,4.1274,4.1275,4.128,4.1287,4.1292,4.1299,4.1305,4.1316,4.1319,4.1324,4.1323,4.133,4.1324,4.1323,4.1321,4.1321,4.1321,4.1331,4.1331,4.1331,4.1331,0,4.1256,4.1257,4.1265,4.1272,4.1278,4.1284,4.129,4.1293,4.1295,4.1301,4.1308,4.1312,4.1321,4.1327,4.1333,4.1335,4.1333,4.1333,4.1335,4.1334,4.1332,4.1332,4.1313,4.1333,4.1333,4.1333,4.1332,4.1332,4.1269,4.1276,4.1282,4.1289,4.1294,4.1299,4.1304,4.1307,4.1313,4.1321,4.1321,4.1328,4.1332,4.134,4.1342,4.1347,4.1345,4.1347,4.1348,4.1348,4.1348,4.1332,4.1348,4.1348,4.1348,4.1348,4.1348,0,4.1288,4.1291,4.1298,4.1306,4.1311,4.131,4.1315,4.1319,4.1326,4.1331,4.1336,4.1343,4.1349,4.1351,4.1357,4.136,4.1359,4.1361,4.136,4.136,4.135,4.1348,4.1362,4.1362,4.1362,4.1362,4.1362,4.1362,4.1298,4.1308,4.1309,4.1321,4.1324,4.1331,4.1334,4.1338,4.1341,4.135,4.1354,4.1356,4.1359,4.1364,4.1369,4.1369,4.1371,4.1373,4.1373,4.1363,4.1361,4.136,4.1358,4.1373,4.1373,4.1382,4.1382,4.1382]}]]